THOR ABLESTAR DEB, 559

Orbit data source: Space-Track

THOR ABLESTAR DEB, 559 is space debris in LEO originally from a launch on Thu, 29 Jun 1961 UTC launched from the Air Force Eastern Test Range (AFETR). Debris objects in space refer to the collection of defunct objects orbiting the Earth. Examples of debris include non-operational satellites, rocket bodies, and fragments generated from explosions, collisions, or faulty payload assembly.

Loading next visibility...
Identifier
559, 1961-015GR
Orbit
LEO
Country
Flag of USUS
Related business
Manufacturer
Unknown
Mission
Spacecraft
Bus & Motor
Unknown
Mass
Unknown
Launch date (UTC)
1961-06-29 (65 years ago)
Launch vehicle
Unknown
Launch site
Air Force Eastern Test Range (AFETR)
Object type
Payload
Rocket body
Debris
Shape & HBR
Unknown shape, 0.1 m
Radar Cross Section
Medium (>0.1 m² and <1 m²)

Expand to show TLE details & history
Last TLE update: 10 hours ago

TLE from 10 hours ago
0 THOR ABLESTAR DEB
1 00559U 61015GR  26207.07179796  .00006830  00000-0  10428-2 0  9999
2 00559  66.5959 181.9220 0034346 138.5220 221.8516 14.74009627355508
Epoch: 2026-07-26T01:43Z
TLE epoch observation values (Epoch: 2026-07-26T01:43:23.343Z)
Latitude
-0.00005°
Longitude
-147.70027°
Altitude
668.454 km
Speed
7.514 km/s
True Right ascension
12h 07m 41s
True Declination
0° 00' 00"
Sunlit
Object was in daylight at epoch
Visualization orbit readout
Latitude
Unknown
Longitude
Unknown
Altitude
Unknown
Speed
Unknown
Apparent Right ascension
Unknown
Apparent Declination
Unknown
Sunlit
N/A
Visualization observer readout
Local Sidereal Time
01:13:53
Azimuth
Unknown
Elevation
Unknown
Doppler factor
Unknown
Orbital elements
Apogee altitude
670.778 km
Perigee altitude
622.524 km
Semi-major axis
7,024.788 km
Eccentricity
0.00343
Inclination
66.5959°
RAAN
181.922°
Arg. of periapsis
138.522°
True anomaly
221.58984°
Mean anomaly
221.8516°
Eccentric anomaly
221.72064°
Mean motion
3.68632 °/min
Orbital period
97.66 mins
BSTAR
0.0010428
Loading maneuver chart data...
Computing Atmospheric mass density...
Loading historical data...
Loading historical data...
Loading historical data...
Loading historical data...
Loading historical data...
Loading historical data...
Loading historical data...

Documentation

Showing up to 5 results
|